Rochester, Indiana, United States (46975)
Lat: 41.06N, Lon: 86.22W
Wx Zone: INZ015
Local Info
Past Weather Observations for Today

NOTE: This archive is for the closest National Weather Service station to Rochester. Information may differ from the station used for current weather conditions.

Click here for Long-term Archive

Time Weather Temperature Dewpoint Humidity Pressure Winds Precip Visibility
15:35
Clear
81°F / 27°C 61°F / 16°C 51% 30.09 in
(1019 mb)
NW 6.9 mph
(NW 11 kph)
- 10SM
15:15
Clear
79°F / 26°C 59°F / 15°C 51% 30.09 in
(1019 mb)
NNW 6.9 mph
(NNW 11 kph)
- 10SM
14:55
Clear
81°F / 27°C 61°F / 16°C 51% 30.09 in
(1019 mb)
NW 6.9 mph
(NW 11 kph)
- 10SM
14:35
Clear
81°F / 27°C 61°F / 16°C 51% 30.12 in
(1020 mb)
NW 5.8 mph
(NW 9 kph)
- 10SM
14:15
Clear
79°F / 26°C 59°F / 15°C 51% 30.12 in
(1020 mb)
ENE 3.5 mph
(ENE 6 kph)
- 10SM
13:55
Clear
79°F / 26°C 59°F / 15°C 51% 30.12 in
(1020 mb)
NE 4.6 mph
(NE 7 kph)
- 10SM
13:35
Fair
79°F / 26°C 59°F / 15°C 51% 30.12 in
(1020 mb)
N 4.6 mph
(N 7 kph)
- 10SM
13:15
Fair
79°F / 26°C 59°F / 15°C 51% 30.12 in
(1020 mb)
NNW 4.6 mph
(NNW 7 kph)
- 10SM
12:55
Fair
79°F / 26°C 61°F / 16°C 54% 30.12 in
(1020 mb)
N 6.9 mph
(N 11 kph)
- 10SM
12:35
Clear
79°F / 26°C 61°F / 16°C 54% 30.12 in
(1020 mb)
N 5.8 mph
(N 9 kph)
- 10SM
12:15
Clear
77°F / 25°C 61°F / 16°C 57% 30.12 in
(1020 mb)
Calm - 10SM
11:55
Clear
75°F / 24°C 63°F / 17°C 65% 30.12 in
(1020 mb)
Calm - 10SM
11:35
Clear
75°F / 24°C 64°F / 18°C 69% 30.12 in
(1020 mb)
ENE 4.6 mph
(ENE 7 kph)
- 10SM
11:15
Clear
73°F / 23°C 64°F / 18°C 74% 30.12 in
(1020 mb)
NE 3.5 mph
(NE 6 kph)
- 10SM
10:55
Clear
73°F / 23°C 63°F / 17°C 69% 30.15 in
(1021 mb)
NNW 6.9 mph
(NNW 11 kph)
- 10SM
10:35
Clear
73°F / 23°C 63°F / 17°C 69% 30.15 in
(1021 mb)
NE 6.9 mph
(NE 11 kph)
- 10SM
10:15
Clear
72°F / 22°C 63°F / 17°C 73% 30.15 in
(1021 mb)
N 3.5 mph
(N 6 kph)
- 10SM
09:55
Clear
72°F / 22°C 63°F / 17°C 73% 30.15 in
(1021 mb)
NE 3.5 mph
(NE 6 kph)
- 10SM
09:35
Clear
72°F / 22°C 63°F / 17°C 73% 30.15 in
(1021 mb)
NE 5.8 mph
(NE 9 kph)
- 10SM
09:15
Partly Cloudy
70°F / 21°C 63°F / 17°C 78% 30.15 in
(1021 mb)
Calm - 10SM
08:55
Partly Cloudy
68°F / 20°C 63°F / 17°C 83% 30.15 in
(1021 mb)
NE 4.6 mph
(NE 7 kph)
- 10SM
08:35
Clear
70°F / 21°C 63°F / 17°C 78% 30.12 in
(1020 mb)
NE 5.8 mph
(NE 9 kph)
- 10SM
08:15
Clear
68°F / 20°C 63°F / 17°C 83% 30.12 in
(1020 mb)
NE 4.6 mph
(NE 7 kph)
- 10SM
07:55
Partly Cloudy
66°F / 19°C 64°F / 18°C 94% 30.12 in
(1020 mb)
Calm - 10SM
07:35
Mostly Cloudy
66°F / 19°C 64°F / 18°C 94% 30.12 in
(1020 mb)
Calm - 10SM
07:15
Mostly Cloudy
66°F / 19°C 64°F / 18°C 94% 30.12 in
(1020 mb)
Calm - 7SM
06:55
Overcast
64°F / 18°C 64°F / 18°C 100% 30.12 in
(1020 mb)
Calm - 7SM
06:35
Overcast
Fog And Mist
64°F / 18°C 64°F / 18°C 100% 30.12 in
(1020 mb)
Calm - 5SM
06:15
Overcast
64°F / 18°C 64°F / 18°C 100% 30.12 in
(1020 mb)
Calm - 7SM
05:55
Mostly Cloudy
64°F / 18°C 64°F / 18°C 100% 30.12 in
(1020 mb)
NNE 3.5 mph
(NNE 6 kph)
- 7SM
05:35
Overcast
66°F / 19°C 64°F / 18°C 94% 30.12 in
(1020 mb)
Calm - 7SM
05:15
Overcast
Fog And Mist
66°F / 19°C 66°F / 19°C 100% 30.12 in
(1020 mb)
NE 3.5 mph
(NE 6 kph)
- 5SM
04:55
Overcast
Fog And Mist
66°F / 19°C 66°F / 19°C 100% 30.12 in
(1020 mb)
N 3.5 mph
(N 6 kph)
- 3SM
04:35
Overcast
Fog And Mist
68°F / 20°C 68°F / 20°C 100% 30.09 in
(1019 mb)
N 3.5 mph
(N 6 kph)
- 4SM
04:15
Overcast
Fog And Mist
68°F / 20°C 68°F / 20°C 100% 30.09 in
(1019 mb)
Calm - 4SM
03:55
Overcast
Fog And Mist
68°F / 20°C 68°F / 20°C 100% 30.09 in
(1019 mb)
NNE 4.6 mph
(NNE 7 kph)
- 3SM
03:35
Overcast
Fog And Mist
68°F / 20°C 68°F / 20°C 100% 30.09 in
(1019 mb)
Calm - 3SM
03:15
Overcast
Fog
68°F / 20°C 68°F / 20°C 100% 30.12 in
(1020 mb)
NNW 3.5 mph
(NNW 6 kph)
- 1/2SM
02:55
Overcast
Fog
68°F / 20°C 68°F / 20°C 100% 30.09 in
(1019 mb)
N 3.5 mph
(N 6 kph)
- 1/2SM
02:35
Overcast
Fog
68°F / 20°C 68°F / 20°C 100% 30.09 in
(1019 mb)
N 5.8 mph
(N 9 kph)
- 1/2SM
02:15
Overcast
Fog
68°F / 20°C 68°F / 20°C 100% 30.09 in
(1019 mb)
NNW 4.6 mph
(NNW 7 kph)
- 1/4SM
01:55
Overcast
Fog
68°F / 20°C 68°F / 20°C 100% 30.12 in
(1020 mb)
NNW 3.5 mph
(NNW 6 kph)
- 1/2SM
01:35
Overcast
Fog And Mist
68°F / 20°C 68°F / 20°C 100% 30.12 in
(1020 mb)
N 4.6 mph
(N 7 kph)
- 3SM
01:15
Partly Cloudy
Fog And Mist
68°F / 20°C 68°F / 20°C 100% 30.12 in
(1020 mb)
Calm - 4SM
00:55
Partly Cloudy
Fog And Mist
68°F / 20°C 68°F / 20°C 100% 30.12 in
(1020 mb)
N 4.6 mph
(N 7 kph)
- 4SM
00:35
Clear
Fog And Mist
66°F / 19°C 66°F / 19°C 100% 30.12 in
(1020 mb)
N 3.5 mph
(N 6 kph)
- 4SM
00:15
Clear
Fog And Mist
66°F / 19°C 66°F / 19°C 100% 30.12 in
(1020 mb)
Calm - 4SM
Time Weather Temperature Dewpoint Humidity Pressure Winds Precip Visibility


Weather for websites

WeatherForYou.com, LLC is not responsible for any damages or problems caused by this service. Current weather conditions are obtained from the closest station including government and personal stations which may have varying degrees of accuracy. Weather forecasts are derived from the NOAA NDFD. Like all things, this site belongs to Jesus Christ... He just trusts me to maintain it. If you have any questions or comments email webmaster@weatherforyou.com

Copyright © 2014, WeatherForYou.com LLC. All rights reserved.